Campo, CA

11:21 PM PST on December 09, 2019 (GMT -0800)
Campo

Weather History for KCZZ - August, 2019

Change the Weather History Date:

Thursday, August 1, 2019

  Actual Average Record
Temperature  
Mean Temperature 78 °F 74 °F  
Max Temperature 99 °F 95 °F 105 °F (1993)
Min Temperature 57 °F 54 °F 38 °F (1956)
Degree Days  
Heating Degree Days 0 0  
Month to date heating degree days 0 0  
Since 1 June heating degree days 42 63  
Since 1 July heating degree days 6 7  
Cooling Degree Days 13 9  
Month to date cooling degree days 13 9  
Year to date cooling degree days 341 381  
Since 1 June cooling degree days 339 351  
Growing Degree Days 27 (Base 50)    
Moisture  
Dew Point 50 °F    
Average Humidity 44    
Maximum Humidity 72    
Minimum Humidity 15    
Precipitation  
Precipitation 0.00 in 0.02 in 1.63 in (2005)
Month to date precipitation 0.00 0.02  
Year to date precipitation 12.82 10.49  
Sea Level Pressure  
Sea Level Pressure 29.90 in    
Wind  
Wind Speed 7 mph (NNW)    
Max Wind Speed 20 mph    
Max Gust Speed 25 mph    
T = Trace of Precipitation, MM = Missing Value Source: NWS Daily Summary

Daily Weather History Graph

Daily Weather History Graph

Search for Another Location

Airport or City:

Astronomy

Aug. 01, 2019 Rise Set
Actual Time 5:59 AM PDT 7:44 PM PDT
Civil Twilight 5:33 AM PDT 8:10 PM PDT
Nautical Twilight 5:00 AM PDT 8:43 PM PDT
Astronomical Twilight 4:26 AM PDT 9:17 PM PDT
Moon 6:30 AM PDT (8/1) 8:36 PM PDT (8/1)
Length of Visible Light 14h 37m
Length of Day
13h 44m
New Moon, 1% of the Moon is Illuminated
Aug 1
New Moon
Aug 7
First Quarter
Aug 15
Full
Aug 23
Last Quarter
Aug 30
New

Hourly Weather History & Observations

Time (PDT) Temp. Heat Index Dew Point Humidity Pressure Visibility Wind Dir Wind Speed Gust Speed Precip Events Conditions
12:52 AM 63.0 °F - 52.0 °F 67% 29.91 in - ENE 3.5 mph - N/A   Unknown
1:52 AM 62.1 °F - 52.0 °F 70% 29.90 in - NE 4.6 mph - N/A   Unknown
2:52 AM 63.0 °F - 51.1 °F 65% 29.91 in - NNE 4.6 mph - N/A   Unknown
3:52 AM 59.0 °F - 50.0 °F 72% 29.91 in - NE 5.8 mph - N/A   Unknown
4:52 AM 59.0 °F - 50.0 °F 72% 29.91 in - NNE 3.5 mph - N/A   Unknown
5:52 AM 57.0 °F - 48.9 °F 74% 29.93 in - NE 4.6 mph - N/A   Unknown
6:52 AM 63.0 °F - 51.1 °F 65% 29.94 in - ENE 4.6 mph - N/A   Unknown
7:52 AM 73.9 °F - 52.0 °F 46% 29.94 in - ENE 3.5 mph - N/A   Unknown
8:52 AM 82.9 °F - 52.0 °F 34% 29.94 in - Calm Calm - N/A   Unknown
9:52 AM 89.1 °F - 50.0 °F 26% 29.93 in - Variable 5.8 mph - N/A   Unknown
10:52 AM 91.9 °F - 48.9 °F 23% 29.91 in - SSW 8.1 mph - N/A   Unknown
11:52 AM 95.0 °F - 44.1 °F 17% 29.90 in - WNW 11.5 mph - N/A   Unknown
12:52 PM 97.0 °F - 42.1 °F 15% 29.89 in - WNW 13.8 mph 21.9 mph N/A   Unknown
1:52 PM 97.0 °F - 41.0 °F 14% 29.88 in - WNW 16.1 mph 23.0 mph N/A   Unknown
2:52 PM 97.0 °F - 42.1 °F 15% 29.87 in - WNW 13.8 mph - N/A   Unknown
3:52 PM 96.1 °F - 42.1 °F 15% 29.86 in - WNW 13.8 mph 21.9 mph N/A   Unknown
4:52 PM 93.9 °F - 43.0 °F 17% 29.86 in - WNW 13.8 mph 23.0 mph N/A   Unknown
5:52 PM 91.9 °F - 46.9 °F 21% 29.86 in - West 11.5 mph - N/A   Unknown
6:52 PM 86.0 °F 84.5 °F 55.0 °F 35% 29.87 in - SW 8.1 mph - N/A   Unknown
7:52 PM 75.9 °F - 57.9 °F 54% 29.88 in - South 6.9 mph - N/A   Unknown
8:52 PM 73.0 °F - 57.9 °F 59% 29.89 in - SW 5.8 mph - N/A   Unknown
9:52 PM 72.0 °F - 57.9 °F 61% 29.90 in - Calm Calm - N/A   Unknown
10:52 PM 66.0 °F - 54.0 °F 65% 29.91 in - NE 4.6 mph - N/A   Unknown